sat.trackr.live / text

‹ back to catalog

STARLINK-32569

NORAD 61867 · 2024-202Y

PAYLOAD ACTIVE UNKNOWN

§ Identity

Operator
Country
US
Launch date
2024-11-07
Launch site
AFETR
Launch vehicle
Mass (kg)
RCS (m²)

Purposes: comms

External: N2YO · Heavens-Above · Gunter

§ Orbital elements

Epoch: 2026-09-21T06:21:31.467456Z

Period
94.27 min
Inclination
43.0014°
Eccentricity
0.0001073
Mean motion
15.27577947 rev/d
Perigee alt
482.3 km
Apogee alt
483.8 km
Semi-major
6,861.2 km
B*
1.2165e-5
RAAN
213.8873°
Arg perigee
275.4625°
Mean anomaly
84.6104°
Rev number
10,524

§ Raw data

STARLINK-325691 61867U 24202Y   26264.26494754  .00000073  00000+0  12165-4 0  99972 61867  43.0014 213.8873 0001073 275.4625  84.6104 15.27577947105245

JSON: /api/v1/satellites/61867 · /tle

For live sub-satellite position, see the globe view (requires WebGL).

§ Visibility from observer

Set your observer location to see the next 7 days of passes ≥ 10°. The values pass through the URL so the page stays shareable.

No JS? Fill the form by hand. The geolocation button needs JavaScript.